Location: Courçay
(47.2523°N, 0.8761°E)
Time: 00:04:51
(UTC+00:00)

USA 281 - Pass Details

Date: 18 November 2025
Orbit: 1079 x 1080 km, 106.0° (Epoch: 27 November)

Event Time Altitude Azimuth Distance (km) Brightness Sun altitude
Exits shadow 18:11:30 30° 69° (ENE) 1,845 3.9 -19.1°
Maximum altitude 18:12:47 32° 48° (NE) 1,768 3.9 -19.3°
Drops below altitude 10° 18:18:26 10° 349° (N) 2,931 5.5 -20.2°
Sets 18:21:13 0° 340° (NNW) 3,891 6.3 -20.7°
